Regional Weather Roundup
Issued by NWS

Home | Current Version | Previous Version | Graphics & Text | Print | Product List | Glossary On
Versions: 1 2 3 4 5 6 7 8 9 10 11 12 13 14 15 16 17 18 19 20 21 22 23 24 25 26 27 28 29 30 31 32 33 34 35 36 37 38 39 40 41 42 43 44 45 46 47 48 49 50
000
ASUS45 KABQ 122110
RWRNM
WEATHER ROUNDUP FOR NEW MEXICO
NATIONAL WEATHER SERVICE ALBUQUERQUE NM
300 PM MDT SAT JUL 12 2014

NOTE: "FAIR" MEANS FEW OR NO CLOUDS BELOW 12,000 FEET AGL WITH NO
       SIGNIFICANT WEATHER OR OBSTRUCTIONS TO VISION.

      THIS PRODUCT IS RELEASED AS TWO VERSIONS.  ONE VERSION NEAR
      THE TOP OF THE HOUR CONTAINING PRELIMINARY DATA FROM ALBUQUERQUE
      AND OTHER STATIONS.  A FINAL VERSION WITH ADDITIONAL DATA IS
      ISSUED ABOUT 10 MINUTES AFTER THE HOUR.

NMZ501-503-504-510>518-122200-
NORTHWEST PLATEAU/NORTHCENTRAL MOUNTAINS

CITY           SKY/WX    TMP DP  RH WIND       PRES   REMARKS
FARMINGTON     SUNNY     88  48  25 VRB6      30.19F
LOS ALAMOS     MOSUNNY   82  40  22 S6        30.33F
SANTA FE       MOSUNNY   86  47  25 SW8       30.24F
TAOS             N/A    N/A N/A N/A MISG        N/A
ANGEL FIRE     MOCLDY    76  48  37 S9        30.42F

$$
NMZ402-403-502-505>509-122200-
WESTCENTRAL MOUNTAINS/SOUTHWEST MOUNTAINS

CITY           SKY/WX    TMP DP  RH WIND       PRES   REMARKS
GALLUP         MOSUNNY   88  49  25 NW9       30.26F
GRANTS         MOSUNNY   87  44  22 S9        30.28F
SILVER CITY    MOSUNNY   86  50  28 S13       30.20F

$$
NMZ407-409-411-412-122200-
SOUTHERN DESERTS

CITY           SKY/WX    TMP DP  RH WIND       PRES   REMARKS
LORDSBURG      FAIR      90  54  29 SE8       30.09F
DEMING         SUNNY     92  53  26 VRB5      30.09F
LAS CRUCES     MOSUNNY   93  50  23 S8        30.12F
ALAMOGORDO     PTSUNNY   90  54  29 E6        30.12S
T OR C         SUNNY     89  50  26 SE8       30.14F

$$
NMZ519>523-122200-
CENTRAL VALLEYS/CENTRAL HIGHLANDS

CITY           SKY/WX    TMP DP  RH WIND       PRES   REMARKS
ALBUQUERQUE    MOSUNNY   88  53  30 SW10      30.18F
DOUBLE EAGLE   MOSUNNY   86  50  28 CALM      30.22F
MORIARTY ARPT  FAIR      85  48  27 S12G20    30.27F
CLINES CORNERS SUNNY     83  45  26 VRB5G18   30.32F
BELEN          FAIR      85  54  34 SW6       30.18F
SOCORRO        FAIR      92  51  24 E7        30.15F

$$
NMZ524>526-539-540-122200-
SOUTHCENTRAL MOUNTAINS

CITY           SKY/WX    TMP DP  RH WIND       PRES   REMARKS
RUIDOSO        MOSUNNY   75  50  41 MISG      30.33F

$$
NMZ527>531-122200-
NORTHEAST HIGHLANDS/NORTHEAST PLAINS

CITY           SKY/WX    TMP DP  RH WIND       PRES   REMARKS
LAS VEGAS      MOSUNNY   81  47  30 SE10G17   30.32F
RATON          MOSUNNY   90  45  21 S16G23    30.23F
CLAYTON        SUNNY     90  49  24 S13G21    30.18F

$$
NMZ532>537-122200-
EASTCENTRAL PLAINS

CITY           SKY/WX    TMP DP  RH WIND       PRES   REMARKS
TUCUMCARI      MOSUNNY   90  56  31 S10       30.14F
CANNON AFB     NOT AVBL
CLOVIS AIRPORT NOT AVBL

$$
NMZ028-029-538-122200-
SOUTHEAST PLAINS

CITY           SKY/WX    TMP DP  RH WIND       PRES   REMARKS
ROSWELL        SUNNY     88  58  36 MISG      30.12F
ARTESIA        MOSUNNY   86  57  37 SW6       30.11F
CARLSBAD       MOSUNNY   92  56  29 MISG      30.08F
HOBBS          MOSUNNY   90  55  31 SE10G16   30.14F


$$


USA.gov is the U.S. government's official web portal to all federal, state and local government web resources and services.